Date,TemperatureHighF,TemperatureAvgF,TemperatureLowF,DewpointHighF,DewpointAvgF,DewpointLowF,HumidityHigh,HumidityAvg,HumidityLow,PressureMaxIn,PressureMinIn,WindSpeedMaxMPH,WindSpeedAvgMPH,GustSpeedMaxMPH,PrecipitationSumIn
2013-9-3,87.1,78.6,69.0,76.6,70.7,66.2,91,78,60,30.02,29.90,6,0,6,0.58
2013-9-4,87.9,73.2,62.0,72.6,66.6,60.8,98,82,52,30.13,30.01,9,0,9,0.00
2013-9-5,86.2,71.6,60.6,72.8,65.4,59.5,97,83,56,30.18,30.11,8,1,8,0.00
2013-9-6,87.3,72.5,61.4,72.9,66.2,60.0,97,82,57,30.19,30.08,9,1,9,0.00
2013-9-7,88.0,74.2,62.9,75.1,68.9,61.8,97,85,62,30.14,30.01,6,0,6,0.00
2013-9-8,90.3,76.4,66.0,76.7,71.2,65.1,98,85,59,30.04,29.95,6,0,6,0.00
2013-9-9,89.8,77.1,70.3,78.2,72.9,69.1,97,88,63,30.11,30.00,6,0,6,0.00
2013-9-10,90.4,78.0,69.4,77.7,72.3,68.5,98,84,60,30.22,30.11,6,0,6,0.00
2013-9-11,90.5,77.4,68.4,76.5,71.2,67.4,97,83,54,30.25,30.10,6,0,6,0.00
2013-9-12,94.8,77.7,68.8,77.9,71.4,67.6,97,83,54,30.11,29.92,6,0,6,0.00
2013-9-13,86.0,73.2,60.8,70.0,63.0,53.9,96,73,45,30.00,29.89,12,1,12,0.00
2013-9-14,78.7,64.8,53.7,61.5,55.7,49.8,93,74,52,30.10,29.99,15,1,15,0.00
2013-9-15,83.6,67.9,55.2,69.9,61.7,53.5,95,82,57,30.19,30.09,6,0,10,0.00
2013-9-16,85.9,70.9,59.8,69.8,63.8,58.7,97,80,50,30.18,30.10,7,0,7,0.00
2013-9-17,82.8,72.8,64.8,70.3,65.2,61.4,90,78,62,30.23,30.13,9,1,9,0.00
2013-9-18,80.2,71.5,65.7,67.2,63.5,61.1,91,77,59,30.25,30.13,7,1,7,0.00
2013-9-19,83.2,71.7,61.2,70.1,65.4,59.8,97,82,58,30.22,30.06,7,0,7,0.00
2013-9-20,87.0,73.7,63.1,71.6,66.7,61.9,97,81,52,30.09,29.89,5,0,6,0.00
2013-9-21,73.0,67.4,58.5,69.2,66.0,57.2,97,95,87,29.89,29.77,4,0,7,1.85
2013-9-22,77.0,63.5,52.7,63.7,57.5,51.8,97,83,56,29.94,29.86,14,1,14,0.00
2013-9-23,81.8,66.1,55.5,66.7,60.1,53.8,95,82,57,30.04,29.93,7,1,7,0.00
2013-9-24,72.8,65.3,59.0,66.1,62.5,57.9,97,91,76,30.06,29.90,6,0,6,0.00
2013-9-25,68.3,66.6,65.4,67.2,65.4,64.2,97,96,91,29.91,29.85,3,0,3,0.44
2013-9-26,79.8,68.5,61.6,69.8,64.9,60.0,98,89,65,30.05,29.89,6,0,6,0.00
2013-9-27,80.4,66.8,56.8,68.7,61.2,55.9,98,84,54,30.17,30.04,6,0,6,0.00
2013-9-28,77.5,66.5,57.5,65.3,60.9,56.6,98,84,58,30.24,30.12,4,0,4,0.00
2013-9-29,77.3,65.5,56.6,63.8,60.1,55.4,97,84,55,30.18,30.04,3,0,7,0.00
2013-9-30,77.0,64.7,55.9,64.9,59.9,54.8,97,86,59,30.12,30.01,7,0,7,0.00